Location: Baia de Cri?
(46.1667°N, 22.7167°E)
Time: 09:09:58
(UTC+00:00)

ARIANE 6 FM1 Upper Stage - Pass Details

Date: 15 January 2026
Orbit: 522 x 609 km, 62.0° (Epoch: 10 February)

Event Time Altitude Azimuth Distance (km) Brightness Sun altitude
Exits shadow 03:38:36 40° 152° (SSE) 786 3.5 -25.3°
Drops below altitude 10° 03:41:16 10° 145° (SE) 1,783 5.7 -24.8°
Sets 03:43:28 0° 144° (SE) 2,681 6.7 -24.4°
